Location: Newark
(44.5425°N, 10.7801°E)
Time: 06:39:42
(UTC+00:00)

N. Korean satellite - Pass Details

Date: 30 January 2020
Orbit: 456 x 505 km, 97.2° (Epoch: 27 February)

Event Time Altitude Azimuth Distance (km) Brightness Sun altitude
Rises 05:08:25 0° 12° (NNE) 2,557 10.3 -16.2°
Reaches altitude 10° 05:10:29 10° 12° (NNE) 1,680 9.3 -15.8°
Maximum altitude 05:14:06 89° 104° (ESE) 498 6.5 -15.2°
Drops below altitude 10° 05:17:45 10° 193° (SSW) 1,691 9.3 -14.5°
Sets 05:19:50 0° 193° (SSW) 2,576 10.2 -14.2°
